| time (UTC) | temp F | wind direction | speed MPH | gust MPH | rain 1hr in | rain 24hr in | rain mn in | humidity % | barometer mb |
| 20260508145646 | 54 | 195 | 5.0 | 6.0 | 0.00 | 0.00 | 0.00 | 57 | 1010.7 |
| 20260508145142 | 54 | 192 | 4.0 | 10.0 | 0.00 | 0.00 | 0.00 | 56 | 1010.8 |
| 20260508144640 | 54 | 196 | 4.0 | 7.0 | 0.00 | 0.00 | 0.00 | 56 | 1010.6 |
| 20260508144138 | 54 | 201 | 2.0 | 8.0 | 0.00 | 0.00 | 0.00 | 56 | 1010.8 |
| 20260508143635 | 53 | 170 | 2.0 | 5.0 | 0.00 | 0.00 | 0.00 | 57 | 1010.7 |
| 20260508143132 | 53 | 207 | 5.0 | 6.0 | 0.00 | 0.00 | 0.00 | 56 | 1010.9 |
| 20260508142628 | 53 | 194 | 5.0 | 9.0 | 0.00 | 0.00 | 0.00 | 57 | 1010.8 |
| 20260508142125 | 53 | 219 | 6.0 | 8.0 | 0.00 | 0.00 | 0.00 | 57 | 1011.0 |
| 20260508141621 | 53 | 214 | 2.0 | 7.0 | 0.00 | 0.00 | 0.00 | 57 | 1010.9 |
| 20260508141119 | 53 | 191 | 2.0 | 5.0 | 0.00 | 0.00 | 0.00 | 57 | 1010.8 |
| 20260508140616 | 53 | 189 | 2.0 | 9.0 | 0.00 | 0.00 | 0.00 | 57 | 1010.7 |
| 20260508140113 | 53 | 164 | 1.0 | 7.0 | 0.00 | 0.00 | 0.00 | 58 | 1010.6 |
| 20260508135608 | 53 | 213 | 4.0 | 7.0 | 0.00 | 0.00 | 0.00 | 57 | 1010.8 |
| 20260508135105 | 53 | 228 | 6.0 | 7.0 | 0.00 | 0.00 | 0.00 | 59 | 1010.7 |
| 20260508134602 | 53 | 208 | 6.0 | 6.0 | 0.00 | 0.00 | 0.00 | 59 | 1010.8 |
| 20260508134059 | 53 | 204 | 3.0 | 6.0 | 0.00 | 0.00 | 0.00 | 59 | 1010.8 |
| 20260508133555 | 53 | 181 | 4.0 | 5.0 | 0.00 | 0.00 | 0.00 | 59 | 1010.7 |
| 20260508133053 | 53 | 195 | 4.0 | 6.0 | 0.00 | 0.00 | 0.00 | 59 | 1010.6 |
| 20260508132550 | 52 | 207 | 3.0 | 5.0 | 0.00 | 0.00 | 0.00 | 59 | 1010.6 |
| 20260508132047 | 52 | 204 | 3.0 | 9.0 | 0.00 | 0.00 | 0.00 | 60 | 1010.7 |
| 20260508131542 | 52 | 178 | 4.0 | 7.0 | 0.00 | 0.00 | 0.00 | 59 | 1010.8 |
| 20260508131039 | 52 | 173 | 4.0 | 5.0 | 0.00 | 0.00 | 0.00 | 60 | 1010.6 |
| 20260508130536 | 52 | 158 | 3.0 | 5.0 | 0.00 | 0.00 | 0.00 | 60 | 1010.7 |
| 20260508130033 | 52 | 194 | 3.0 | 5.0 | 0.00 | 0.00 | 0.00 | 60 | 1010.6 |
| 20260508125528 | 52 | 200 | 5.0 | 9.0 | 0.00 | 0.00 | 0.00 | 59 | 1010.5 |
| 20260508125026 | 52 | 194 | 2.0 | 11.0 | 0.00 | 0.00 | 0.00 | 59 | 1010.7 |
| 20260508124524 | 52 | 168 | 1.0 | 6.0 | 0.00 | 0.00 | 0.00 | 61 | 1010.7 |
| 20260508124021 | 51 | 177 | 2.0 | 6.0 | 0.00 | 0.00 | 0.00 | 61 | 1010.7 |
| 20260508123519 | 51 | 180 | 3.0 | 6.0 | 0.00 | 0.00 | 0.00 | 61 | 1010.7 |
| 20260508123016 | 51 | 195 | 2.0 | 5.0 | 0.00 | 0.00 | 0.00 | 61 | 1010.5 |
| 20260508122513 | 50 | 198 | 5.0 | 6.0 | 0.00 | 0.00 | 0.00 | 62 | 1010.6 |
| 20260508122010 | 50 | 158 | 4.0 | 5.0 | 0.00 | 0.00 | 0.00 | 63 | 1010.7 |
| 20260508121508 | 50 | 180 | 2.0 | 5.0 | 0.00 | 0.00 | 0.00 | 63 | 1010.5 |
| 20260508121006 | 50 | 167 | 4.0 | 4.0 | 0.00 | 0.00 | 0.00 | 63 | 1010.4 |
| 20260508120503 | 50 | 170 | 5.0 | 7.0 | 0.00 | 0.00 | 0.00 | 63 | 1010.5 |
| 20260508120001 | 49 | 173 | 4.0 | 5.0 | 0.00 | 0.00 | 0.00 | 64 | 1010.5 |
| 20260508115458 | 49 | 170 | 4.0 | 4.0 | 0.00 | 0.00 | 0.00 | 64 | 1010.6 |
| 20260508114955 | 49 | 196 | 3.0 | 5.0 | 0.00 | 0.00 | 0.00 | 64 | 1010.4 |
| 20260508114452 | 50 | 173 | 2.0 | 6.0 | 0.00 | 0.00 | 0.00 | 63 | 1010.6 |
| 20260508113948 | 49 | 202 | 4.0 | 5.0 | 0.00 | 0.00 | 0.00 | 65 | 1010.3 |
| 20260508113446 | 48 | 158 | 3.0 | 5.0 | 0.00 | 0.00 | 0.00 | 66 | 1010.4 |
| 20260508112943 | 48 | 192 | 4.0 | 4.0 | 0.00 | 0.00 | 0.00 | 66 | 1010.2 |
| 20260508112439 | 47 | 174 | 4.0 | 6.0 | 0.00 | 0.00 | 0.00 | 67 | 1010.4 |
| 20260508111936 | 47 | 162 | 3.0 | 5.0 | 0.00 | 0.00 | 0.00 | 67 | 1010.4 |
| 20260508111433 | 47 | 136 | 4.0 | 5.0 | 0.00 | 0.00 | 0.00 | 68 | 1010.3 |
| 20260508110930 | 46 | 170 | 2.0 | 3.0 | 0.00 | 0.00 | 0.00 | 69 | 1010.3 |
| 20260508110428 | 46 | 174 | 2.0 | 3.0 | 0.00 | 0.00 | 0.00 | 69 | 1010.2 |
| 20260508105927 | 46 | 174 | 2.0 | 3.0 | 0.00 | 0.00 | 0.00 | 69 | 1010.2 |
| 20260508105424 | 45 | 136 | 2.0 | 4.0 | 0.00 | 0.00 | 0.00 | 69 | 1010.2 |
| 20260508104921 | 45 | 169 | 2.0 | 3.0 | 0.00 | 0.00 | 0.00 | 69 | 1010.2 |
| 20260508104419 | 45 | 167 | 2.0 | 4.0 | 0.00 | 0.00 | 0.00 | 69 | 1010.0 |
| 20260508103915 | 45 | 145 | 3.0 | 5.0 | 0.00 | 0.00 | 0.00 | 69 | 1010.0 |
| 20260508103412 | 45 | 162 | 2.0 | 4.0 | 0.00 | 0.00 | 0.00 | 69 | 1010.2 |
| 20260508102909 | 45 | 190 | 3.0 | 5.0 | 0.00 | 0.00 | 0.00 | 70 | 1009.7 |
| 20260508102408 | 45 | 170 | 3.0 | 4.0 | 0.00 | 0.00 | 0.00 | 70 | 1009.8 |
| 20260508101905 | 45 | 154 | 2.0 | 4.0 | 0.00 | 0.00 | 0.00 | 71 | 1009.9 |
| 20260508101402 | 44 | 161 | 2.0 | 4.0 | 0.00 | 0.00 | 0.00 | 72 | 1009.8 |
| 20260508100859 | 44 | 148 | 5.0 | 5.0 | 0.00 | 0.00 | 0.00 | 73 | 1009.7 |
| 20260508100358 | 44 | 137 | 3.0 | 4.0 | 0.00 | 0.00 | 0.00 | 74 | 1009.7 |
| 20260508095853 | 43 | 150 | 3.0 | 4.0 | 0.00 | 0.00 | 0.00 | 75 | 1009.6 |
| 20260508095351 | 42 | 154 | 3.0 | 4.0 | 0.00 | 0.00 | 0.00 | 79 | 1009.7 |
| 20260508094848 | 42 | 148 | 3.0 | 4.0 | 0.00 | 0.00 | 0.00 | 82 | 1009.9 |
| 20260508094345 | 42 | 138 | 3.0 | 4.0 | 0.00 | 0.00 | 0.00 | 82 | 1009.8 |
| 20260508093842 | 42 | 133 | 3.0 | 3.0 | 0.00 | 0.00 | 0.00 | 80 | 1009.9 |
| 20260508093339 | 43 | 123 | 4.0 | 4.0 | 0.00 | 0.00 | 0.00 | 77 | 1009.9 |
| 20260508092836 | 44 | 128 | 3.0 | 4.0 | 0.00 | 0.00 | 0.00 | 76 | 1009.8 |
| 20260508092334 | 44 | 101 | 2.0 | 4.0 | 0.00 | 0.00 | 0.00 | 74 | 1009.9 |
| 20260508091832 | 44 | 119 | 3.0 | 4.0 | 0.00 | 0.00 | 0.00 | 73 | 1010.0 |
| 20260508091328 | 44 | 150 | 2.0 | 4.0 | 0.00 | 0.00 | 0.00 | 75 | 1010.1 |
| 20260508090826 | 44 | 147 | 3.0 | 4.0 | 0.00 | 0.00 | 0.00 | 76 | 1009.8 |
| 20260508090325 | 44 | 149 | 4.0 | 5.0 | 0.00 | 0.00 | 0.00 | 76 | 1010.0 |
| 20260508085820 | 44 | 144 | 4.0 | 4.0 | 0.00 | 0.00 | 0.00 | 75 | 1010.0 |
| 20260508085317 | 44 | 158 | 3.0 | 5.0 | 0.00 | 0.00 | 0.00 | 76 | 1010.0 |
| 20260508084814 | 44 | 148 | 4.0 | 5.0 | 0.00 | 0.00 | 0.00 | 77 | 1010.0 |
| 20260508084311 | 44 | 142 | 3.0 | 5.0 | 0.00 | 0.00 | 0.00 | 80 | 1010.0 |
| 20260508083808 | 44 | 152 | 4.0 | 5.0 | 0.00 | 0.00 | 0.00 | 83 | 1010.0 |
| 20260508083306 | 44 | 133 | 4.0 | 5.0 | 0.00 | 0.00 | 0.00 | 84 | 1009.9 |
| 20260508082805 | 44 | 145 | 4.0 | 5.0 | 0.00 | 0.00 | 0.00 | 84 | 1010.1 |
| 20260508082306 | 44 | 135 | 4.0 | 5.0 | 0.00 | 0.00 | 0.00 | 83 | 1010.1 |
| 20260508081800 | 44 | 144 | 4.0 | 4.0 | 0.00 | 0.00 | 0.00 | 83 | 1009.9 |
| 20260508081257 | 44 | 151 | 3.0 | 4.0 | 0.00 | 0.00 | 0.00 | 82 | 1010.0 |
| 20260508080754 | 44 | 143 | 4.0 | 4.0 | 0.00 | 0.00 | 0.00 | 83 | 1009.8 |
| 20260508080252 | 44 | 139 | 3.0 | 3.0 | 0.00 | 0.00 | 0.00 | 81 | 1010.2 |
| 20260508075748 | 45 | 115 | 2.0 | 4.0 | 0.00 | 0.00 | 0.00 | 79 | 1010.1 |
| 20260508075245 | 46 | 127 | 3.0 | 4.0 | 0.00 | 0.00 | 0.00 | 79 | 1010.1 |
| 20260508074743 | 46 | 140 | 4.0 | 5.0 | 0.00 | 0.00 | 0.00 | 78 | 1010.1 |
| 20260508074240 | 46 | 146 | 4.0 | 5.0 | 0.00 | 0.00 | 0.00 | 77 | 1010.0 |
| 20260508073737 | 47 | 130 | 3.0 | 4.0 | 0.00 | 0.00 | 0.00 | 76 | 1010.0 |
| 20260508073235 | 47 | 149 | 3.0 | 4.0 | 0.00 | 0.00 | 0.00 | 76 | 1010.2 |
| 20260508072731 | 48 | 144 | 4.0 | 5.0 | 0.00 | 0.00 | 0.00 | 75 | 1010.2 |
| 20260508072228 | 48 | 144 | 3.0 | 4.0 | 0.00 | 0.00 | 0.00 | 74 | 1010.2 |
| 20260508071725 | 48 | 144 | 3.0 | 4.0 | 0.00 | 0.00 | 0.00 | 74 | 1010.1 |
| 20260508071223 | 48 | 157 | 4.0 | 5.0 | 0.00 | 0.00 | 0.00 | 74 | 1010.2 |
| 20260508070720 | 48 | 149 | 6.0 | 6.0 | 0.00 | 0.00 | 0.00 | 75 | 1010.4 |
| 20260508070219 | 48 | 160 | 4.0 | 5.0 | 0.00 | 0.00 | 0.00 | 75 | 1010.4 |
| 20260508065716 | 48 | 139 | 5.0 | 5.0 | 0.00 | 0.00 | 0.00 | 76 | 1010.4 |
| 20260508065214 | 48 | 160 | 4.0 | 5.0 | 0.00 | 0.00 | 0.00 | 75 | 1010.5 |
| 20260508064711 | 48 | 140 | 2.0 | 4.0 | 0.00 | 0.00 | 0.00 | 74 | 1010.6 |
| 20260508064209 | 48 | 125 | 2.0 | 4.0 | 0.00 | 0.00 | 0.00 | 73 | 1010.5 |
| 20260508063706 | 49 | 146 | 4.0 | 4.0 | 0.00 | 0.00 | 0.00 | 71 | 1010.5 |
| 20260508063204 | 49 | 151 | 4.0 | 5.0 | 0.00 | 0.00 | 0.00 | 72 | 1010.7 |
| 20260508062701 | 48 | 152 | 3.0 | 4.0 | 0.00 | 0.00 | 0.00 | 71 | 1010.6 |
| 20260508062158 | 49 | 130 | 3.0 | 3.0 | 0.00 | 0.00 | 0.00 | 71 | 1011.0 |
| 20260508061655 | 49 | 125 | 2.0 | 3.0 | 0.00 | 0.00 | 0.00 | 70 | 1010.7 |
| 20260508061153 | 49 | 95 | 2.0 | 3.0 | 0.00 | 0.00 | 0.00 | 68 | 1011.3 |
| 20260508060649 | 49 | 123 | 2.0 | 3.0 | 0.00 | 0.00 | 0.00 | 70 | 1011.2 |
| 20260508060147 | 49 | 92 | 2.0 | 4.0 | 0.00 | 0.00 | 0.00 | 66 | 1011.2 |
| 20260508055642 | 49 | 35 | 4.0 | 4.0 | 0.00 | 0.00 | 0.00 | 67 | 1011.5 |
| 20260508055139 | 49 | 74 | 3.0 | 3.0 | 0.00 | 0.00 | 0.00 | 68 | 1011.3 |
| 20260508054635 | 49 | 122 | 2.0 | 4.0 | 0.00 | 0.00 | 0.00 | 68 | 1011.4 |
| 20260508054133 | 49 | 59 | 1.0 | 2.0 | 0.00 | 0.00 | 0.00 | 68 | 1011.1 |
| 20260508053630 | 49 | 103 | 2.0 | 4.0 | 0.00 | 0.00 | 0.00 | 69 | 1010.8 |
| 20260508053128 | 48 | 142 | 2.0 | 3.0 | 0.00 | 0.00 | 0.00 | 68 | 1010.8 |
| 20260508052625 | 48 | 145 | 3.0 | 4.0 | 0.00 | 0.00 | 0.00 | 72 | 1010.6 |
| 20260508052122 | 48 | 148 | 4.0 | 4.0 | 0.00 | 0.00 | 0.00 | 74 | 1010.6 |
| 20260508051618 | 48 | 146 | 4.0 | 4.0 | 0.00 | 0.00 | 0.00 | 75 | 1010.6 |
| 20260508051113 | 48 | 135 | 3.0 | 4.0 | 0.00 | 0.00 | 0.00 | 72 | 1010.5 |
| 20260508050610 | 48 | 107 | 2.0 | 2.0 | 0.00 | 0.00 | 0.00 | 73 | 1010.8 |
| 20260508050108 | 48 | 123 | 3.0 | 3.0 | 0.00 | 0.00 | 0.00 | 72 | 1010.4 |
| 20260508045603 | 47 | 129 | 3.0 | 4.0 | 0.00 | 0.00 | 0.00 | 71 | 1010.6 |
| 20260508045101 | 47 | 126 | 3.0 | 4.0 | 0.00 | 0.00 | 0.00 | 72 | 1010.8 |
| 20260508044558 | 48 | 129 | 2.0 | 3.0 | 0.00 | 0.00 | 0.00 | 73 | 1010.6 |
| 20260508044054 | 48 | 135 | 4.0 | 4.0 | 0.00 | 0.00 | 0.00 | 73 | 1010.7 |
| 20260508043551 | 47 | 146 | 4.0 | 4.0 | 0.00 | 0.00 | 0.00 | 75 | 1010.7 |
| 20260508043049 | 47 | 130 | 2.0 | 3.0 | 0.00 | 0.00 | 0.00 | 77 | 1010.7 |
| 20260508042545 | 48 | 128 | 2.0 | 3.0 | 0.00 | 0.00 | 0.00 | 77 | 1010.7 |
| 20260508042042 | 48 | 145 | 3.0 | 4.0 | 0.00 | 0.00 | 0.00 | 77 | 1010.8 |
| 20260508041538 | 48 | 135 | 3.0 | 3.0 | 0.00 | 0.00 | 0.00 | 76 | 1010.8 |
| 20260508041035 | 48 | 113 | 2.0 | 3.0 | 0.00 | 0.00 | 0.00 | 75 | 1010.9 |
| 20260508040532 | 48 | 119 | 2.0 | 3.0 | 0.00 | 0.00 | 0.00 | 74 | 1010.9 |
| 20260508040030 | 48 | 145 | 3.0 | 4.0 | 0.00 | 0.00 | 0.00 | 74 | 1010.8 |
| 20260508035526 | 47 | 136 | 3.0 | 3.0 | 0.00 | 0.00 | 0.00 | 71 | 1010.8 |
| 20260508035024 | 47 | 129 | 2.0 | 3.0 | 0.00 | 0.00 | 0.00 | 72 | 1010.7 |
| 20260508034521 | 48 | 109 | 2.0 | 4.0 | 0.00 | 0.00 | 0.00 | 71 | 1010.7 |
| 20260508034017 | 48 | 124 | 3.0 | 3.0 | 0.00 | 0.00 | 0.00 | 70 | 1010.8 |
| 20260508033515 | 48 | 132 | 3.0 | 4.0 | 0.00 | 0.00 | 0.00 | 70 | 1010.9 |
| 20260508033013 | 48 | 86 | 2.0 | 2.0 | 0.00 | 0.00 | 0.00 | 71 | 1010.7 |
| 20260508032510 | 48 | 141 | 4.0 | 4.0 | 0.00 | 0.00 | 0.00 | 71 | 1010.7 |
| 20260508032007 | 48 | 71 | 1.0 | 2.0 | 0.00 | 0.00 | 0.00 | 70 | 1010.7 |
| 20260508031505 | 48 | 127 | 4.0 | 4.0 | 0.00 | 0.00 | 0.00 | 71 | 1010.9 |
| 20260508030959 | 48 | 108 | 2.0 | 2.0 | 0.00 | 0.00 | 0.00 | 73 | 1010.9 |
| 20260508030457 | 47 | 110 | 1.0 | 2.0 | 0.00 | 0.00 | 0.00 | 72 | 1010.8 |
| 20260508025954 | 46 | 116 | 2.0 | 2.0 | 0.00 | 0.00 | 0.00 | 74 | 1010.8 |
| 20260508025450 | 46 | 120 | 3.0 | 4.0 | 0.00 | 0.00 | 0.00 | 73 | 1010.7 |
| 20260508024948 | 46 | 136 | 3.0 | 4.0 | 0.00 | 0.00 | 0.00 | 72 | 1010.8 |
| 20260508024443 | 46 | 127 | 2.0 | 3.0 | 0.00 | 0.00 | 0.00 | 72 | 1010.8 |
| 20260508023941 | 46 | 119 | 3.0 | 3.0 | 0.00 | 0.00 | 0.00 | 72 | 1010.6 |
| 20260508023437 | 46 | 124 | 3.0 | 3.0 | 0.00 | 0.00 | 0.00 | 73 | 1010.7 |
| 20260508022935 | 46 | 115 | 3.0 | 3.0 | 0.00 | 0.00 | 0.00 | 74 | 1010.7 |
| 20260508022430 | 46 | 130 | 3.0 | 4.0 | 0.00 | 0.00 | 0.00 | 72 | 1010.6 |
| 20260508021927 | 47 | 129 | 3.0 | 4.0 | 0.00 | 0.00 | 0.00 | 70 | 1010.7 |
| 20260508021423 | 47 | 121 | 3.0 | 3.0 | 0.00 | 0.00 | 0.00 | 69 | 1010.5 |
| 20260508020919 | 48 | 122 | 2.0 | 3.0 | 0.00 | 0.00 | 0.00 | 68 | 1010.7 |
| 20260508020418 | 48 | 129 | 4.0 | 4.0 | 0.00 | 0.00 | 0.00 | 70 | 1010.6 |
| 20260508015914 | 47 | 122 | 3.0 | 4.0 | 0.00 | 0.00 | 0.00 | 74 | 1010.8 |
| 20260508015412 | 47 | 127 | 3.0 | 3.0 | 0.00 | 0.00 | 0.00 | 74 | 1010.8 |
| 20260508014908 | 47 | 126 | 3.0 | 4.0 | 0.00 | 0.00 | 0.00 | 74 | 1010.7 |
| 20260508014406 | 47 | 126 | 3.0 | 4.0 | 0.00 | 0.00 | 0.00 | 73 | 1010.7 |
| 20260508013902 | 47 | 125 | 3.0 | 3.0 | 0.00 | 0.00 | 0.00 | 71 | 1010.6 |
| 20260508013357 | 47 | 124 | 3.0 | 3.0 | 0.00 | 0.00 | 0.00 | 70 | 1010.5 |
| 20260508012855 | 47 | 138 | 3.0 | 3.0 | 0.00 | 0.00 | 0.00 | 67 | 1010.6 |
| 20260508012352 | 48 | 135 | 3.0 | 3.0 | 0.00 | 0.00 | 0.00 | 65 | 1010.5 |
| 20260508011849 | 48 | 118 | 2.0 | 3.0 | 0.00 | 0.00 | 0.00 | 62 | 1010.5 |
| 20260508011347 | 48 | 136 | 3.0 | 4.0 | 0.00 | 0.00 | 0.00 | 60 | 1010.4 |
| 20260508010844 | 49 | 127 | 2.0 | 3.0 | 0.00 | 0.00 | 0.00 | 58 | 1010.5 |
| 20260508010341 | 50 | 130 | 2.0 | 3.0 | 0.00 | 0.00 | 0.00 | 56 | 1010.5 |
| 20260508005839 | 50 | 129 | 2.0 | 3.0 | 0.00 | 0.00 | 0.00 | 57 | 1010.6 |
| 20260508005335 | 50 | 125 | 2.0 | 3.0 | 0.00 | 0.00 | 0.00 | 55 | 1010.5 |
| 20260508004831 | 51 | 115 | 2.0 | 3.0 | 0.00 | 0.00 | 0.00 | 54 | 1010.5 |
| 20260508004328 | 51 | 127 | 3.0 | 3.0 | 0.00 | 0.00 | 0.00 | 52 | 1010.4 |
| 20260508003824 | 51 | 133 | 2.0 | 3.0 | 0.00 | 0.00 | 0.00 | 51 | 1010.4 |
| 20260508003322 | 51 | 124 | 2.0 | 3.0 | 0.00 | 0.00 | 0.00 | 49 | 1010.5 |
| 20260508002819 | 52 | 137 | 2.0 | 3.0 | 0.00 | 0.00 | 0.00 | 47 | 1010.2 |
| 20260508002315 | 53 | 131 | 2.0 | 3.0 | 0.00 | 0.00 | 0.00 | 47 | 1010.2 |
| 20260508001811 | 53 | 122 | 2.0 | 3.0 | 0.00 | 0.00 | 0.00 | 44 | 1010.2 |
| 20260508001307 | 54 | 112 | 2.0 | 2.0 | 0.00 | 0.00 | 0.00 | 42 | 1010.1 |
| 20260508000803 | 54 | 106 | 2.0 | 2.0 | 0.00 | 0.00 | 0.00 | 42 | 1010.1 |
| 20260508000300 | 55 | 143 | 1.0 | 2.0 | 0.00 | 0.00 | 0.00 | 40 | 1010.0 |
| 20260507235757 | 55 | 130 | 0.0 | 2.0 | 0.00 | 0.00 | 0.00 | 40 | 1010.1 |
| 20260507235254 | 55 | 120 | 1.0 | 2.0 | 0.00 | 0.00 | 0.00 | 41 | 1010.0 |
| 20260507234751 | 55 | 70 | 1.0 | 3.0 | 0.00 | 0.00 | 0.00 | 40 | 1010.0 |
| 20260507234248 | 56 | 149 | 1.0 | 3.0 | 0.00 | 0.00 | 0.00 | 40 | 1009.9 |
| 20260507233744 | 57 | 177 | 1.0 | 2.0 | 0.00 | 0.00 | 0.00 | 37 | 1009.9 |
| 20260507233242 | 58 | 193 | 2.0 | 4.0 | 0.00 | 0.00 | 0.00 | 38 | 1009.9 |
| 20260507232739 | 58 | 120 | 2.0 | 4.0 | 0.00 | 0.00 | 0.00 | 37 | 1009.7 |
| 20260507232236 | 59 | 5 | 2.0 | 5.0 | 0.00 | 0.00 | 0.00 | 35 | 1010.0 |
| 20260507231733 | 58 | 144 | 0.0 | 3.0 | 0.00 | 0.00 | 0.00 | 36 | 1010.0 |
| 20260507231230 | 58 | 246 | 1.0 | 5.0 | 0.00 | 0.00 | 0.00 | 35 | 1010.0 |
| 20260507230726 | 59 | 330 | 3.0 | 7.0 | 0.00 | 0.00 | 0.00 | 35 | 1009.9 |
| 20260507230224 | 59 | 211 | 2.0 | 6.0 | 0.00 | 0.00 | 0.00 | 35 | 1010.0 |
| 20260507225723 | 59 | 23 | 0.0 | 4.0 | 0.00 | 0.00 | 0.00 | 34 | 1010.0 |
| 20260507225220 | 59 | 230 | 2.0 | 5.0 | 0.00 | 0.00 | 0.00 | 35 | 1010.0 |
| 20260507224715 | 59 | 341 | 2.0 | 4.0 | 0.00 | 0.00 | 0.00 | 36 | 1010.2 |
| 20260507224212 | 59 | 27 | 0.0 | 4.0 | 0.00 | 0.00 | 0.00 | 35 | 1010.1 |
| 20260507223708 | 58 | 323 | 2.0 | 5.0 | 0.00 | 0.00 | 0.00 | 36 | 1010.1 |
| 20260507223206 | 59 | 340 | 7.0 | 7.0 | 0.00 | 0.00 | 0.00 | 35 | 1010.1 |
| 20260507222702 | 60 | 291 | 3.0 | 8.0 | 0.00 | 0.00 | 0.00 | 34 | 1010.3 |
| 20260507222159 | 58 | 171 | 3.0 | 4.0 | 0.00 | 0.00 | 0.00 | 38 | 1010.3 |
| 20260507221655 | 58 | 50 | 3.0 | 4.0 | 0.00 | 0.00 | 0.00 | 38 | 1010.2 |
| 20260507221151 | 58 | 330 | 2.0 | 4.0 | 0.00 | 0.00 | 0.00 | 37 | 1010.3 |
| 20260507220649 | 58 | 199 | 2.0 | 6.0 | 0.00 | 0.00 | 0.00 | 37 | 1010.4 |
| 20260507220147 | 59 | 333 | 4.0 | 5.0 | 0.00 | 0.00 | 0.00 | 35 | 1010.3 |
| 20260507215642 | 59 | 356 | 8.0 | 12.0 | 0.00 | 0.00 | 0.00 | 34 | 1010.3 |
| 20260507215140 | 59 | 356 | 6.0 | 6.0 | 0.00 | 0.00 | 0.00 | 34 | 1010.3 |
| 20260507214637 | 60 | 13 | 4.0 | 9.0 | 0.00 | 0.00 | 0.00 | 34 | 1010.2 |
| 20260507214134 | 60 | 336 | 2.0 | 6.0 | 0.00 | 0.00 | 0.00 | 35 | 1010.1 |
| 20260507213630 | 60 | 30 | 2.0 | 8.0 | 0.00 | 0.00 | 0.00 | 35 | 1010.1 |
| 20260507213127 | 59 | 44 | 3.0 | 4.0 | 0.00 | 0.00 | 0.00 | 38 | 1010.0 |
| 20260507212623 | 58 | 3 | 3.0 | 11.0 | 0.00 | 0.00 | 0.00 | 36 | 1010.1 |
| 20260507212120 | 58 | 353 | 0.0 | 5.0 | 0.00 | 0.00 | 0.00 | 38 | 1010.0 |
| 20260507211617 | 58 | 64 | 1.0 | 5.0 | 0.00 | 0.00 | 0.00 | 36 | 1009.8 |
| 20260507211112 | 59 | 358 | 3.0 | 6.0 | 0.00 | 0.00 | 0.00 | 36 | 1009.9 |
| 20260507210610 | 59 | 127 | 3.0 | 7.0 | 0.00 | 0.00 | 0.00 | 37 | 1009.9 |
| 20260507210107 | 59 | 344 | 7.0 | 9.0 | 0.00 | 0.00 | 0.00 | 35 | 1009.8 |
| 20260507205603 | 59 | 330 | 7.0 | 8.0 | 0.00 | 0.00 | 0.00 | 34 | 1010.0 |
| 20260507205100 | 58 | 124 | 2.0 | 4.0 | 0.00 | 0.00 | 0.00 | 38 | 1009.9 |
| 20260507204556 | 59 | 332 | 4.0 | 5.0 | 0.00 | 0.00 | 0.00 | 38 | 1010.1 |
| 20260507204054 | 59 | 159 | 3.0 | 6.0 | 0.00 | 0.00 | 0.00 | 39 | 1010.1 |
| 20260507203551 | 60 | 248 | 10.0 | 12.0 | 0.00 | 0.00 | 0.00 | 36 | 1009.9 |
| 20260507203049 | 58 | 215 | 3.0 | 10.0 | 0.00 | 0.00 | 0.00 | 39 | 1009.9 |
| 20260507202544 | 58 | 45 | 2.0 | 8.0 | 0.00 | 0.00 | 0.00 | 41 | 1009.9 |
| 20260507202040 | 58 | 72 | 4.0 | 9.0 | 0.00 | 0.00 | 0.00 | 39 | 1009.9 |
| 20260507201536 | 57 | 45 | 2.0 | 10.0 | 0.00 | 0.00 | 0.00 | 40 | 1010.0 |
| 20260507201033 | 58 | 2 | 6.0 | 10.0 | 0.00 | 0.00 | 0.00 | 38 | 1010.2 |
| 20260507200528 | 58 | 343 | 6.0 | 8.0 | 0.00 | 0.00 | 0.00 | 39 | 1010.2 |
| 20260507200025 | 57 | 255 | 2.0 | 7.0 | 0.00 | 0.00 | 0.00 | 40 | 1010.0 |
| 20260507195522 | 56 | 330 | 7.0 | 8.0 | 0.00 | 0.00 | 0.00 | 39 | 1010.0 |
| 20260507195020 | 57 | 321 | 6.0 | 7.0 | 0.00 | 0.00 | 0.00 | 38 | 1010.2 |
| 20260507194516 | 57 | 16 | 4.0 | 5.0 | 0.00 | 0.00 | 0.00 | 40 | 1010.1 |
| 20260507194012 | 58 | 190 | 3.0 | 6.0 | 0.00 | 0.00 | 0.00 | 43 | 1010.1 |
| 20260507193509 | 57 | 342 | 2.0 | 10.0 | 0.00 | 0.00 | 0.00 | 41 | 1010.3 |
| 20260507193006 | 57 | 341 | 3.0 | 9.0 | 0.00 | 0.00 | 0.00 | 41 | 1010.4 |
| 20260507192502 | 58 | 329 | 3.0 | 15.0 | 0.00 | 0.00 | 0.00 | 41 | 1010.1 |
| 20260507191959 | 57 | 0 | 4.0 | 10.0 | 0.00 | 0.00 | 0.00 | 40 | 1010.2 |
| 20260507191454 | 57 | 349 | 7.0 | 11.0 | 0.00 | 0.00 | 0.00 | 38 | 1010.1 |
| 20260507190951 | 56 | 9 | 4.0 | 8.0 | 0.00 | 0.00 | 0.00 | 41 | 1010.2 |
| 20260507190449 | 56 | 331 | 4.0 | 9.0 | 0.00 | 0.00 | 0.00 | 39 | 1010.1 |
| 20260507185948 | 57 | 319 | 4.0 | 11.0 | 0.00 | 0.00 | 0.00 | 42 | 1010.4 |
| 20260507185445 | 57 | 311 | 3.0 | 10.0 | 0.00 | 0.00 | 0.00 | 39 | 1010.3 |
| 20260507184941 | 57 | 356 | 4.0 | 11.0 | 0.00 | 0.00 | 0.00 | 42 | 1010.2 |
| 20260507184439 | 57 | 19 | 3.0 | 7.0 | 0.00 | 0.00 | 0.00 | 45 | 1010.3 |
| 20260507183937 | 56 | 344 | 4.0 | 11.0 | 0.00 | 0.00 | 0.00 | 45 | 1010.2 |
| 20260507183434 | 56 | 0 | 3.0 | 9.0 | 0.00 | 0.00 | 0.00 | 45 | 1010.4 |
| 20260507182931 | 57 | 294 | 2.0 | 10.0 | 0.00 | 0.00 | 0.00 | 45 | 1010.3 |
| 20260507182427 | 57 | 40 | 2.0 | 8.0 | 0.00 | 0.00 | 0.00 | 47 | 1010.4 |
| 20260507181923 | 57 | 66 | 4.0 | 12.0 | 0.00 | 0.00 | 0.00 | 45 | 1010.3 |
| 20260507181419 | 56 | 313 | 2.0 | 11.0 | 0.00 | 0.00 | 0.00 | 45 | 1010.4 |
| 20260507180916 | 56 | 338 | 3.0 | 8.0 | 0.00 | 0.00 | 0.00 | 45 | 1010.3 |
| 20260507180413 | 57 | 235 | 2.0 | 6.0 | 0.00 | 0.00 | 0.00 | 45 | 1010.3 |
| 20260507175908 | 57 | 77 | 2.0 | 5.0 | 0.00 | 0.00 | 0.00 | 52 | 1010.3 |
| 20260507175405 | 56 | 180 | 2.0 | 5.0 | 0.00 | 0.00 | 0.00 | 45 | 1010.4 |
| 20260507174903 | 56 | 11 | 4.0 | 10.0 | 0.00 | 0.00 | 0.00 | 45 | 1010.4 |
| 20260507174400 | 56 | 312 | 4.0 | 5.0 | 0.00 | 0.00 | 0.00 | 47 | 1010.4 |
| 20260507173858 | 56 | 219 | 2.0 | 7.0 | 0.00 | 0.00 | 0.00 | 47 | 1010.7 |
| 20260507173355 | 56 | 332 | 3.0 | 15.0 | 0.00 | 0.00 | 0.00 | 44 | 1010.5 |
| 20260507172851 | 56 | 231 | 5.0 | 8.0 | 0.00 | 0.00 | 0.00 | 44 | 1010.6 |
| 20260507172348 | 56 | 30 | 5.0 | 6.0 | 0.00 | 0.00 | 0.00 | 42 | 1010.5 |
| 20260507171844 | 56 | 231 | 2.0 | 9.0 | 0.00 | 0.00 | 0.00 | 42 | 1010.7 |
| 20260507171340 | 56 | 237 | 3.0 | 10.0 | 0.00 | 0.00 | 0.00 | 45 | 1010.7 |
| 20260507170838 | 55 | 320 | 4.0 | 9.0 | 0.00 | 0.00 | 0.00 | 45 | 1010.8 |
| 20260507170334 | 55 | 11 | 3.0 | 9.0 | 0.00 | 0.00 | 0.00 | 44 | 1011.1 |
| 20260507165830 | 55 | 252 | 3.0 | 12.0 | 0.00 | 0.00 | 0.00 | 44 | 1010.8 |
| 20260507165326 | 55 | 328 | 2.0 | 9.0 | 0.00 | 0.00 | 0.00 | 43 | 1010.9 |
| 20260507164822 | 55 | 232 | 8.0 | 11.0 | 0.00 | 0.00 | 0.00 | 48 | 1011.0 |
| 20260507164320 | 55 | 347 | 2.0 | 9.0 | 0.00 | 0.00 | 0.00 | 43 | 1011.1 |
| 20260507163817 | 55 | 247 | 8.0 | 13.0 | 0.00 | 0.00 | 0.00 | 45 | 1011.1 |
| 20260507163314 | 55 | 258 | 3.0 | 7.0 | 0.00 | 0.00 | 0.00 | 44 | 1011.1 |
| 20260507162810 | 55 | 261 | 6.0 | 11.0 | 0.00 | 0.00 | 0.00 | 47 | 1011.1 |
| 20260507162307 | 54 | 348 | 5.0 | 6.0 | 0.00 | 0.00 | 0.00 | 45 | 1011.0 |
| 20260507161803 | 55 | 246 | 6.0 | 6.0 | 0.00 | 0.00 | 0.00 | 46 | 1010.9 |
| 20260507161300 | 54 | 11 | 5.0 | 11.0 | 0.00 | 0.00 | 0.00 | 41 | 1010.9 |
| 20260507160756 | 54 | 268 | 4.0 | 6.0 | 0.00 | 0.00 | 0.00 | 41 | 1010.9 |
| 20260507160252 | 53 | 341 | 6.0 | 9.0 | 0.00 | 0.00 | 0.00 | 40 | 1010.9 |
| 20260507155748 | 54 | 346 | 7.0 | 8.0 | 0.00 | 0.00 | 0.00 | 42 | 1010.9 |
| 20260507155244 | 54 | 0 | 5.0 | 7.0 | 0.00 | 0.00 | 0.00 | 41 | 1011.0 |
| 20260507154741 | 54 | 192 | 3.0 | 11.0 | 0.00 | 0.00 | 0.00 | 43 | 1011.0 |
| 20260507154239 | 53 | 14 | 3.0 | 6.0 | 0.00 | 0.00 | 0.00 | 46 | 1010.8 |
| 20260507153735 | 53 | 336 | 6.0 | 6.0 | 0.00 | 0.00 | 0.00 | 44 | 1010.7 |
| 20260507153231 | 53 | 0 | 2.0 | 7.0 | 0.00 | 0.00 | 0.00 | 45 | 1010.8 |
| 20260507152728 | 53 | 233 | 9.0 | 10.0 | 0.00 | 0.00 | 0.00 | 43 | 1010.8 |
| 20260507152225 | 53 | 261 | 2.0 | 9.0 | 0.00 | 0.00 | 0.00 | 44 | 1010.8 |
| 20260507151720 | 53 | 187 | 4.0 | 9.0 | 0.00 | 0.00 | 0.00 | 43 | 1010.8 |
| 20260507151217 | 54 | 314 | 2.0 | 10.0 | 0.00 | 0.00 | 0.00 | 43 | 1010.7 |
| 20260507150714 | 53 | 320 | 1.0 | 9.0 | 0.00 | 0.00 | 0.00 | 46 | 1010.8 |
| 20260507150211 | 53 | 9 | 4.0 | 6.0 | 0.00 | 0.00 | 0.00 | 44 | 1010.8 |